Terug naar catalogus

STARLINK-32166

ActiefCommunicatieVLEO
NORAD 60257·PAYLOAD·🇺🇸 United States

Gelanceerd Jul 27, 2024 vanaf Cape Canaveral Space Force Station

Loading…

Volgende Passages (komende 24 uur)

TLE

VersSource: CelesTrak SupGP

Epoch: Sep 15, 2026, 03:09 UTC

1 60257C 24131C   26258.13173611 -.00049489  00000+0 -14615-2 0  2589
2 60257  53.1570 251.0269 0001238  99.9784 264.5176 15.34429075    10

Volg STARLINK-32166 in realtime met AllMySat

Download on the App Store